Location: Islay
(41.3172°N, 105.1346°W)
Time: 19:54:14
(UTC+00:00)

ACS3 Solar Sail - Pass Details

Date: 24 April 2026
Orbit: 894 x 947 km, 97.2° (Epoch: 12 May)

Event Time Altitude Azimuth Distance (km) Brightness Sun altitude
Rises 06:45:57 0° 28° (NNE) 3,560 5.5 -35.7°
Reaches altitude 10° 06:49:13 10° 47° (NE) 2,623 4.4 -35.7°
Enters shadow 06:51:31 17° 69° (ENE) 2,192 3.8 -35.8°
